Tiempo cada hora Barreiro

Hoy, 13 Mayo, Jueves

Tiempo Temperatura Precipitaciones Viento Presión Humedad
00:00 +13°C° 0 mm 2 mps 766 mmHg 88%
01:00 +13°C° 0 mm 2 mps 766 mmHg 89%
02:00 +13°C° 0 mm 2 mps 765 mmHg 90%
03:00 +13°C° 0 mm 2 mps 765 mmHg 91%
04:00 +13°C° 0 mm 2 mps 765 mmHg 91%
05:00 +13°C° 0 mm 2 mps 765 mmHg 91%
06:00 +14°C° 0 mm 3 mps 765 mmHg 82%
07:00 +17°C° 0 mm 3 mps 765 mmHg 72%
08:00 +19°C° 0 mm 4 mps 765 mmHg 63%
09:00 +20°C° 0 mm 4 mps 765 mmHg 61%
10:00 +21°C° 0 mm 5 mps 765 mmHg 59%
11:00 +22°C° 0 mm 6 mps 764 mmHg 57%
12:00 +21°C° 0 mm 6 mps 764 mmHg 62%
13:00 +21°C° 0 mm 6 mps 764 mmHg 67%
14:00 +20°C° 0 mm 6 mps 763 mmHg 73%
15:00 +20°C° 0 mm 6 mps 763 mmHg 71%
16:00 +20°C° 0 mm 6 mps 763 mmHg 69%
17:00 +20°C° 0 mm 6 mps 763 mmHg 67%
18:00 +17°C° 0 mm 6 mps 763 mmHg 74%
19:00 +16°C° 0 mm 5 mps 764 mmHg 80%
20:00 +15°C° 0 mm 5 mps 764 mmHg 87%
21:00 +14°C° 0 mm 5 mps 764 mmHg 89%
22:00 +14°C° 0 mm 5 mps 764 mmHg 91%
23:00 +13°C° 0 mm 4 mps 764 mmHg 93%

Mañana, 14 Mayo, Viernes

Tiempo Temperatura Precipitaciones Viento Presión Humedad
00:00 +13°C° 0 mm 4 mps 764 mmHg 92%
01:00 +13°C° 0 mm 4 mps 763 mmHg 92%
02:00 +13°C° 0 mm 4 mps 763 mmHg 91%
03:00 +12°C° 0 mm 4 mps 763 mmHg 91%
04:00 +12°C° 0 mm 4 mps 764 mmHg 91%
05:00 +12°C° 0 mm 4 mps 764 mmHg 91%
06:00 +14°C° 0 mm 4 mps 764 mmHg 80%
07:00 +17°C° 0 mm 4 mps 764 mmHg 69%
08:00 +19°C° 0 mm 5 mps 764 mmHg 58%
09:00 +20°C° 0 mm 5 mps 764 mmHg 53%
10:00 +22°C° 0 mm 5 mps 764 mmHg 48%
11:00 +23°C° 0 mm 5 mps 764 mmHg 44%
12:00 +23°C° 0 mm 5 mps 764 mmHg 44%
13:00 +23°C° 0 mm 5 mps 763 mmHg 45%
14:00 +23°C° 0 mm 6 mps 763 mmHg 45%
15:00 +22°C° 0 mm 6 mps 763 mmHg 50%
16:00 +21°C° 0 mm 5 mps 763 mmHg 55%
17:00 +20°C° 0 mm 5 mps 763 mmHg 60%
18:00 +19°C° 0 mm 5 mps 763 mmHg 67%
19:00 +17°C° 0 mm 4 mps 764 mmHg 74%
20:00 +16°C° 0 mm 3 mps 764 mmHg 81%
21:00 +14°C° 0 mm 3 mps 764 mmHg 85%
22:00 +15°C° 0 mm 2 mps 763 mmHg 89%
23:00 +14°C° 0 mm 2 mps 763 mmHg 92%

Pasado mañana, 15 Mayo, Sábado

Tiempo Temperatura Precipitaciones Viento Presión Humedad
00:00 +14°C° 0 mm 2 mps 763 mmHg 93%
01:00 +14°C° 0 mm 1 mps 763 mmHg 94%
02:00 +14°C° 0 mm 1 mps 762 mmHg 95%
03:00 +14°C° 0 mm 1 mps 762 mmHg 94%
04:00 +14°C° 0 mm 2 mps 762 mmHg 94%
05:00 +14°C° 0 mm 2 mps 762 mmHg 93%
06:00 +17°C° 0 mm 2 mps 762 mmHg 83%
07:00 +19°C° 0 mm 2 mps 763 mmHg 73%
08:00 +21°C° 0 mm 2 mps 763 mmHg 62%
09:00 +24°C° 0 mm 2 mps 763 mmHg 58%
10:00 +25°C° 0 mm 3 mps 762 mmHg 55%
11:00 +26°C° 0 mm 4 mps 762 mmHg 51%
12:00 +26°C° 0 mm 4 mps 762 mmHg 51%
13:00 +27°C° 0 mm 4 mps 762 mmHg 52%
14:00 +27°C° 0 mm 5 mps 762 mmHg 53%
15:00 +26°C° 0 mm 5 mps 762 mmHg 56%
16:00 +25°C° 0 mm 5 mps 762 mmHg 60%
17:00 +23°C° 0 mm 5 mps 762 mmHg 63%
18:00 +21°C° 0 mm 4 mps 762 mmHg 71%
19:00 +19°C° 0 mm 3 mps 762 mmHg 80%
20:00 +18°C° 0 mm 3 mps 762 mmHg 88%
21:00 +17°C° 0 mm 3 mps 762 mmHg 90%
22:00 +17°C° 0 mm 2 mps 762 mmHg 92%
23:00 +17°C° 0 mm 2 mps 762 mmHg 94%

16 Mayo, Domingo

Tiempo Temperatura Precipitaciones Viento Presión Humedad
00:00 +17°C° 0 mm 3 mps 762 mmHg 92%
01:00 +17°C° 0 mm 3 mps 762 mmHg 90%
02:00 +17°C° 0 mm 3 mps 762 mmHg 88%
03:00 +17°C° 0 mm 3 mps 762 mmHg 85%
04:00 +18°C° 0 mm 4 mps 762 mmHg 83%
05:00 +18°C° 0 mm 4 mps 762 mmHg 81%
06:00 +19°C° 0 mm 4 mps 762 mmHg 78%
07:00 +19°C° 0 mm 4 mps 762 mmHg 76%
08:00 +20°C° 0 mm 4 mps 763 mmHg 74%
09:00 +21°C° 0 mm 4 mps 763 mmHg 68%
10:00 +23°C° 0 mm 5 mps 762 mmHg 61%
11:00 +25°C° 0 mm 5 mps 762 mmHg 55%
12:00 +25°C° 0 mm 5 mps 762 mmHg 56%
13:00 +24°C° 0 mm 6 mps 762 mmHg 58%
14:00 +24°C° 0 mm 6 mps 762 mmHg 59%
15:00 +23°C° 0 mm 6 mps 762 mmHg 62%
16:00 +22°C° 0 mm 7 mps 762 mmHg 64%
17:00 +21°C° 0 mm 7 mps 762 mmHg 67%
18:00 +19°C° 0 mm 6 mps 763 mmHg 72%
19:00 +17°C° 0 mm 6 mps 763 mmHg 78%
20:00 +16°C° 0 mm 6 mps 764 mmHg 83%
21:00 +15°C° 0 mm 6 mps 764 mmHg 81%
22:00 +15°C° 0 mm 6 mps 764 mmHg 78%
23:00 +14°C° 0 mm 6 mps 765 mmHg 76%

17 Mayo, Lunes

Tiempo Temperatura Precipitaciones Viento Presión Humedad
00:00 +14°C° 0 mm 6 mps 765 mmHg 75%
01:00 +13°C° 0 mm 6 mps 765 mmHg 74%
02:00 +13°C° 0 mm 6 mps 765 mmHg 73%
03:00 +13°C° 0 mm 5 mps 765 mmHg 74%
04:00 +13°C° 0 mm 5 mps 765 mmHg 74%
05:00 +12°C° 0 mm 5 mps 766 mmHg 74%
06:00 +14°C° 0 mm 6 mps 766 mmHg 65%
07:00 +16°C° 0 mm 6 mps 766 mmHg 57%
08:00 +17°C° 0 mm 6 mps 767 mmHg 48%
09:00 +20°C° 0 mm 6 mps 767 mmHg 43%
10:00 +21°C° 0 mm 6 mps 766 mmHg 39%
11:00 +22°C° 0 mm 6 mps 766 mmHg 34%
12:00 +23°C° 0 mm 7 mps 766 mmHg 34%
13:00 +23°C° 0 mm 7 mps 766 mmHg 34%
14:00 +23°C° 0 mm 8 mps 766 mmHg 33%
15:00 +22°C° 0 mm 8 mps 766 mmHg 37%
16:00 +20°C° 0 mm 8 mps 766 mmHg 41%
17:00 +18°C° 0 mm 8 mps 766 mmHg 44%
18:00 +17°C° 0 mm 8 mps 766 mmHg 51%
19:00 +15°C° 0 mm 7 mps 767 mmHg 58%
20:00 +14°C° 0 mm 7 mps 767 mmHg 65%
21:00 +13°C° 0 mm 6 mps 767 mmHg 66%
22:00 +13°C° 0 mm 6 mps 767 mmHg 67%
23:00 +13°C° 0 mm 5 mps 766 mmHg 69%

18 Mayo, Martes

Tiempo Temperatura Precipitaciones Viento Presión Humedad
00:00 +12°C° 0 mm 5 mps 766 mmHg 71%
01:00 +12°C° 0 mm 4 mps 766 mmHg 73%
02:00 +11°C° 0 mm 4 mps 766 mmHg 75%
03:00 +11°C° 0 mm 3 mps 766 mmHg 75%
04:00 +11°C° 0 mm 3 mps 766 mmHg 76%
05:00 +11°C° 0 mm 3 mps 766 mmHg 77%
06:00 +14°C° 0 mm 3 mps 766 mmHg 65%
07:00 +17°C° 0 mm 3 mps 766 mmHg 53%
08:00 +20°C° 0 mm 3 mps 766 mmHg 40%
09:00 +22°C° 0 mm 3 mps 766 mmHg 36%
10:00 +25°C° 0 mm 4 mps 766 mmHg 32%
11:00 +27°C° 0 mm 4 mps 766 mmHg 27%
12:00 +27°C° 0 mm 5 mps 765 mmHg 28%
13:00 +28°C° 0 mm 5 mps 765 mmHg 28%
14:00 +28°C° 0 mm 6 mps 765 mmHg 29%
15:00 +27°C° 0 mm 6 mps 765 mmHg 31%
16:00 +24°C° 0 mm 7 mps 765 mmHg 33%
17:00 +23°C° 0 mm 7 mps 765 mmHg 35%
18:00 +21°C° 0 mm 6 mps 765 mmHg 41%
19:00 +19°C° 0 mm 6 mps 766 mmHg 47%
20:00 +16°C° 0 mm 5 mps 766 mmHg 52%
21:00 +15°C° 0 mm 5 mps 766 mmHg 56%
22:00 +15°C° 0 mm 4 mps 766 mmHg 59%
23:00 +14°C° 0 mm 4 mps 765 mmHg 62%
Mostrar más

Necesitamos Su Consentimiento

Meteoprog y nuestros Proveedores de Servicios pueden almacenar y acceder a sus datos personales como cookies, identificadores de dispositivo u otras tecnologías similares de su dispositivo y procesar dichos datos para personalizar contenido y anuncios, además de ofrecer funciones de redes sociales y analizar el tráfico.

  • Almacenar y/o acceder a información en su dispositivo

    Se puede almacenar o acceder a cookies, identificadores de dispositivo u otra información de su dispositivo para los fines anteriormente indicados.

  • Anuncios y contenido personalizados, medición de anuncios y contenido, percepciones del público, y desarrollo de productos

    Los anuncios y el contenido pueden personalizarse en base a su perfil. Se pueden añadir más datos para personalizar mejor los anuncios y contenidos. Se puede medir el rendimiento de los anuncios y contenidos. Se puede obtener la percepción sobre el público que ha visto los anuncios y contenidos. Dichos datos pueden usarse para desarrollar o mejorar la experiencia del usuario, sistemas y software.

Al hacer clic en ‘Estoy De Acuerdo’ usted permitirá el uso de las cookies, identificadores de dispositivo, balizas web u otras tecnologías similares indicadas. Su configuración puede cambiarse desde el navegador de su dispositivo.

Para ciertos fines, los intereses legítimos pueden ser considerados por encima del consentimiento. Puede leer más sobre ello en nuestra Política de Privacidad y Cookies.